Regional Weather Roundup
Issued by NWS Glasgow, MT

Current Version | Previous Version | Text Only | Print | Product List | Glossary On
Versions: 1 2 3 4 5 6 7 8 9 10 11 12 13 14 15 16 17 18 19 20 21 22 23 24 25 26 27
000
ASUS45 KGGW 081115
RWRGGW
HOURLY REGIONAL WEATHER ROUNDUP FOR NORTHEAST MONTANA
NATIONAL WEATHER SERVICE GLASGOW MONTANA
400 AM MST THU DEC 08 2016

NOTE: "FAIR" INDICATES FEW OR NO CLOUDS BELOW 12,000 FEET WITH NO
SIGNIFICANT WEATHER AND/OR OBSTRUCTIONS TO VISISBILITY.

NORTHEAST MONTANA


CITY           SKY/WX    TMP DP  RH WIND       PRES   REMARKS
GLASGOW        CLOUDY    -2  -8  76 NW9       30.64F
PLENTYWOOD       N/A     -2  -6  83 NW13        N/A  WCI -20
WOLF POINT     CLOUDY    -2  -8  76 W7        30.67F
JORDAN           N/A    -10 -15  78 W8        30.61F
SIDNEY         FLURRIES  -5  -9  83 CALM      30.65S
GLENDIVE       CLOUDY    -2  -7  79 NW10      30.61F WCI -19
SCOBEY           N/A     -3 -13  62 NW8       30.53S

FORT PECK REPORTS


CITY           SKY/WX    TMP DP  RH WIND       PRES   REMARKS
FORT PECK        N/A     -2  -5  87 W10         N/A  WCI -19

SOUTHEAST MONTANA


CITY           SKY/WX    TMP DP  RH WIND       PRES   REMARKS
BILLINGS       PTCLDY    -2  -7  79 NE3       30.50F
MILES CITY     CLEAR     -6 -12  75 W6        30.62S
BAKER          PTCLDY    -5 -10  79 W13       30.54F WCI -24
LIVINGSTON     CLOUDY    -1  -7  75 E8        30.36S

CENTRAL MONTANA


CITY           SKY/WX    TMP DP  RH WIND       PRES   REMARKS
HAVRE          CLOUDY   -11 -16  78 CALM      30.64F
LEWISTOWN      CLOUDY    -7 -12  79 E3        30.44F
GREAT FALLS    CLOUDY    -3  -8  79 E7        30.49F
CUT BANK       CLOUDY   -10 -15  78 N7        30.49S
HELENA         CLOUDY     2  -6  69 W5        30.43F
BUTTE          CLOUDY    -5 -10  79 CALM      30.25F
BOZEMAN        CLOUDY    -1  -6  79 S7        30.37F

WESTERN MONTANA


CITY           SKY/WX    TMP DP  RH WIND       PRES   REMARKS
MISSOULA       PTCLDY     8   1  73 E9        30.42F
KALISPELL      NOT AVBL

NORTH DAKOTA


CITY           SKY/WX    TMP DP  RH WIND       PRES   REMARKS
WILLISTON      CLOUDY     0  -6  76 W9        30.63S
DICKINSON      PTCLDY    -7 -12  79 NW16      30.52R WCI -29
MINOT          LGT SNOW   4  -1  80 NW23      30.54R WCI -18
BISMARCK       CLOUDY     4  -1  80 NW21G29   30.55S WCI -17

SOUTHERN SASKATCHEWAN


CITY           SKY/WX    TMP DP  RH WIND       PRES   REMARKS
REGINA         PTCLDY    -8 -11  84 W10       30.61S WCI -26
MOOSE JAW      LGT SNOW   0  -6  78 W15       30.63  DRFTSNOWWCI -20
ESTEVAN        CRYSTALS  -9 -13  84 W10       30.57R WCI -28
SWIFT CURRENT  FLURRIES  -8 -11  84 W9        30.57S





USA.gov is the U.S. government's official web portal to all federal, state and local government web resources and services.